Starlink 11152

operational
NORAD ID: 60194 Int'l Des: 2024-124 Owner: SPXS Country: US Constellation: starlink
LEOCIRCULAR

About Starlink 11152

Description loading...

Live Position

Loading 3D Globe...

Upcoming Passes

Altitude History

Altitude vs Time

uPlot chart will show altitude changes over time

Two-Line Element Set

1 60194U 24124M 26036.98230326 .00051178 00000-0 42459-3 0 9992
2 60194 53.1574 317.5917 0000754 56.9066 303.2024 15.69714983 92747
Epoch: Feb 5, 2026 • Age: 9 hours

Current Status

Altitude 369.9 km
Velocity 7.69 km/s
Sub-Earth Point -32.62°S, 22.3°E
Launch Date Jul 3, 2024
Age 1.5 years
Type internet

Technical Details

Classification Payload
Mass 960.00 kg
Dry Mass 910.00 kg
Total Mass 960.00 kg
Length 0.30 m
Diameter 4.10 m
Span 29.00 m
Shape Box + pan
Manufacturer SPXS
Bus Type Starlink V2MD
Phase Status In Orbit
Owner/State SPXS/US

Large Constellations

Loading constellations...